Location: Invercargill
(46.4000°S, 168.3500°E)
Time: 12:18:43
(UTC+13:00)

Helios 1B rocket - Pass Details

Date: 24 January 2019
Orbit: 575 x 586 km, 98.2° (Epoch: 19 February)

Event Time Altitude Azimuth Distance (km) Brightness Sun altitude
Exits shadow 23:00:56 21° 39° (NE) 1,345 3.6 -13.1°
Maximum altitude 23:03:31 53° 108° (ESE) 730 2.7 -13.4°
Drops below altitude 10° 23:07:36 10° 185° (S) 1,933 5.9 -13.9°
Sets 23:09:49 0° 189° (S) 2,843 7.0 -14.1°
